Location: Hurstbourne Priors
(51.2000°N, 1.3667°W)
Time: 19:58:29
(UTC+00:00)

Transit 4A - Pass Details

Date: 26 April 2021
Orbit: 870 x 974 km, 66.8° (Epoch: 09 May)

Event Time Altitude Azimuth Distance (km) Brightness Sun altitude
Rises 20:41:02 0° 165° (SSE) 3,619 - -11.6°
Reaches altitude 10° 20:44:20 10° 148° (SSE) 2,662 - -12.0°
Exits shadow 20:46:30 16° 129° (SE) 2,226 9.2 -12.2°
Maximum altitude 20:48:29 19° 106° (ESE) 2,072 9.2 -12.5°
Drops below altitude 10° 20:52:34 10° 63° (ENE) 2,626 10.1 -12.9°
Sets 20:55:47 0° 47° (NE) 3,553 10.9 -13.3°
